Year,Month,Day,Hour,Minute,Value (Times are PST for temperature in C)
2015,06,23,00,00,16.60
2015,06,23,00,01,16.60
2015,06,23,00,02,16.60
2015,06,23,00,03,16.60
2015,06,23,00,04,16.60
2015,06,23,00,05,16.60
2015,06,23,00,06,16.60
2015,06,23,00,07,16.60
2015,06,23,00,08,16.60
2015,06,23,00,09,16.60
2015,06,23,00,10,16.60
2015,06,23,00,11,16.60
2015,06,23,00,12,16.50
2015,06,23,00,13,16.50
2015,06,23,00,14,16.50
2015,06,23,00,15,16.50
2015,06,23,00,16,16.50
2015,06,23,00,17,16.40
2015,06,23,00,18,16.40
2015,06,23,00,19,16.40
2015,06,23,00,20,16.40
2015,06,23,00,21,16.40
2015,06,23,00,22,16.40
2015,06,23,00,23,16.30
2015,06,23,00,24,16.30
2015,06,23,00,25,16.30
2015,06,23,00,26,16.30
2015,06,23,00,27,16.30
2015,06,23,00,28,16.20
2015,06,23,00,29,16.20
2015,06,23,00,30,16.20
2015,06,23,00,31,16.20
2015,06,23,00,32,16.10
2015,06,23,00,33,16.10
2015,06,23,00,34,16.10
2015,06,23,00,35,16.10
2015,06,23,00,36,16.10
2015,06,23,00,37,16.10
2015,06,23,00,38,16.10
2015,06,23,00,39,16.10
2015,06,23,00,40,16.10
2015,06,23,00,41,16.10
2015,06,23,00,42,16.10
2015,06,23,00,43,16.00
2015,06,23,00,44,16.00
2015,06,23,00,45,16.00
2015,06,23,00,46,16.00
2015,06,23,00,47,16.00
2015,06,23,00,48,16.00
2015,06,23,00,49,15.90
2015,06,23,00,50,15.90
2015,06,23,00,51,15.90
2015,06,23,00,52,15.90
2015,06,23,00,53,15.90
2015,06,23,00,54,15.90
2015,06,23,00,55,15.90
2015,06,23,00,56,15.90
2015,06,23,00,57,15.90
2015,06,23,00,58,15.90
2015,06,23,00,59,15.90
2015,06,23,01,00,15.90
2015,06,23,01,01,16.00
2015,06,23,01,02,16.00
2015,06,23,01,03,16.10
2015,06,23,01,04,16.10
2015,06,23,01,05,16.10
2015,06,23,01,06,16.10
2015,06,23,01,07,16.20
2015,06,23,01,08,16.20
2015,06,23,01,09,16.20
2015,06,23,01,10,16.20
2015,06,23,01,11,16.20
2015,06,23,01,12,16.20
2015,06,23,01,13,16.20
2015,06,23,01,14,16.20
2015,06,23,01,15,16.30
2015,06,23,01,16,16.30
2015,06,23,01,17,16.30
2015,06,23,01,18,16.30
2015,06,23,01,19,16.30
2015,06,23,01,20,16.30
2015,06,23,01,21,16.30
2015,06,23,01,22,16.30
2015,06,23,01,23,16.30
2015,06,23,01,24,16.30
2015,06,23,01,25,16.30
2015,06,23,01,26,16.30
2015,06,23,01,27,16.30
2015,06,23,01,28,16.30
2015,06,23,01,29,16.30
2015,06,23,01,30,16.30
2015,06,23,01,31,16.30
2015,06,23,01,32,16.20
2015,06,23,01,33,16.20
2015,06,23,01,34,16.20
2015,06,23,01,35,16.20
2015,06,23,01,36,16.20
2015,06,23,01,37,16.20
2015,06,23,01,38,16.10
2015,06,23,01,39,16.10
2015,06,23,01,40,16.10
2015,06,23,01,41,16.10
2015,06,23,01,42,16.10
2015,06,23,01,43,16.10
2015,06,23,01,44,16.10
2015,06,23,01,45,16.00
2015,06,23,01,46,16.00
2015,06,23,01,47,16.00
2015,06,23,01,48,16.00
2015,06,23,01,49,15.90
2015,06,23,01,50,15.90
2015,06,23,01,51,15.90
2015,06,23,01,52,15.90
2015,06,23,01,53,15.90
2015,06,23,01,54,15.90
2015,06,23,01,55,15.80
2015,06,23,01,56,15.80
2015,06,23,01,57,15.80
2015,06,23,01,58,15.80
2015,06,23,01,59,15.70
2015,06,23,02,00,15.70
2015,06,23,02,01,15.70
2015,06,23,02,02,15.70
2015,06,23,02,03,15.70
2015,06,23,02,04,15.70
2015,06,23,02,05,15.70
2015,06,23,02,06,15.70
2015,06,23,02,07,15.80
2015,06,23,02,08,15.80
2015,06,23,02,09,15.80
2015,06,23,02,10,15.80
2015,06,23,02,11,15.80
2015,06,23,02,12,15.80
2015,06,23,02,13,15.80
2015,06,23,02,14,15.80
2015,06,23,02,15,15.80
2015,06,23,02,16,15.80
2015,06,23,02,17,15.80
2015,06,23,02,18,15.80
2015,06,23,02,19,15.80
2015,06,23,02,20,15.80
2015,06,23,02,21,15.80
2015,06,23,02,22,15.80
2015,06,23,02,23,15.80
2015,06,23,02,24,15.80
2015,06,23,02,25,15.80
2015,06,23,02,26,15.80
2015,06,23,02,27,15.80
2015,06,23,02,28,15.80
2015,06,23,02,29,15.80
2015,06,23,02,30,15.70
2015,06,23,02,31,15.70
2015,06,23,02,32,15.70
2015,06,23,02,33,15.70
2015,06,23,02,34,15.70
2015,06,23,02,35,15.70
2015,06,23,02,36,15.70
2015,06,23,02,37,15.60
2015,06,23,02,38,15.60
2015,06,23,02,39,15.60
2015,06,23,02,40,15.60
2015,06,23,02,41,15.50
2015,06,23,02,42,15.50
2015,06,23,02,43,15.40
2015,06,23,02,44,15.40
2015,06,23,02,45,15.40
2015,06,23,02,46,15.30
2015,06,23,02,47,15.30
2015,06,23,02,48,15.20
2015,06,23,02,49,15.20
2015,06,23,02,50,15.10
2015,06,23,02,51,15.10
2015,06,23,02,52,15.10
2015,06,23,02,53,15.00
2015,06,23,02,54,15.00
2015,06,23,02,55,15.00
2015,06,23,02,56,15.00
2015,06,23,02,57,14.90
2015,06,23,02,58,14.90
2015,06,23,02,59,14.90
2015,06,23,03,00,14.90
2015,06,23,03,01,14.90
2015,06,23,03,02,14.80
2015,06,23,03,03,14.80
2015,06,23,03,04,14.80
2015,06,23,03,05,14.80
2015,06,23,03,06,14.80
2015,06,23,03,07,14.80
2015,06,23,03,08,14.80
2015,06,23,03,09,14.70
2015,06,23,03,10,14.70
2015,06,23,03,11,14.70
2015,06,23,03,12,14.70
2015,06,23,03,13,14.70
2015,06,23,03,14,14.60
2015,06,23,03,15,14.60
2015,06,23,03,16,14.60
2015,06,23,03,17,14.60
2015,06,23,03,18,14.50
2015,06,23,03,19,14.50
2015,06,23,03,20,14.40
2015,06,23,03,21,14.40
2015,06,23,03,22,14.40
2015,06,23,03,23,14.40
2015,06,23,03,24,14.30
2015,06,23,03,25,14.30
2015,06,23,03,26,14.30
2015,06,23,03,27,14.30
2015,06,23,03,28,14.30
2015,06,23,03,29,14.30
2015,06,23,03,30,14.20
2015,06,23,03,31,14.20
2015,06,23,03,32,14.20
2015,06,23,03,33,14.20
2015,06,23,03,34,14.20
2015,06,23,03,35,14.10
2015,06,23,03,36,14.10
2015,06,23,03,37,14.10
2015,06,23,03,38,14.10
2015,06,23,03,39,14.10
2015,06,23,03,40,14.00
2015,06,23,03,41,14.00
2015,06,23,03,42,14.00
2015,06,23,03,43,13.90
2015,06,23,03,44,13.90
2015,06,23,03,45,13.90
2015,06,23,03,46,13.90
2015,06,23,03,47,13.90
2015,06,23,03,48,13.90
2015,06,23,03,49,13.90
2015,06,23,03,50,13.80
2015,06,23,03,51,13.80
2015,06,23,03,52,13.80
2015,06,23,03,53,13.80
2015,06,23,03,54,13.80
2015,06,23,03,55,13.80
2015,06,23,03,56,13.80
2015,06,23,03,57,13.80
2015,06,23,03,58,13.80
2015,06,23,03,59,13.80
2015,06,23,04,00,13.80
2015,06,23,04,01,13.70
2015,06,23,04,02,13.70
2015,06,23,04,03,13.70
2015,06,23,04,04,13.60
2015,06,23,04,05,13.60
2015,06,23,04,06,13.60
2015,06,23,04,07,13.60
2015,06,23,04,08,13.60
2015,06,23,04,09,13.50
2015,06,23,04,10,13.50
2015,06,23,04,11,13.50
2015,06,23,04,12,13.50
2015,06,23,04,13,13.50
2015,06,23,04,14,13.40
2015,06,23,04,15,13.40
2015,06,23,04,16,13.40
2015,06,23,04,17,13.40
2015,06,23,04,18,13.40
2015,06,23,04,19,13.40
2015,06,23,04,20,13.40
2015,06,23,04,21,13.40
2015,06,23,04,22,13.40
2015,06,23,04,23,13.40
2015,06,23,04,24,13.40
2015,06,23,04,25,13.40
2015,06,23,04,26,13.30
2015,06,23,04,27,13.30
2015,06,23,04,28,13.30
2015,06,23,04,29,13.30
2015,06,23,04,30,13.30
2015,06,23,04,31,13.20
2015,06,23,04,32,13.20
2015,06,23,04,33,13.20
2015,06,23,04,34,13.10
2015,06,23,04,35,13.10
2015,06,23,04,36,13.10
2015,06,23,04,37,13.10
2015,06,23,04,38,13.00
2015,06,23,04,39,13.00
2015,06,23,04,40,13.00
2015,06,23,04,41,13.00
2015,06,23,04,42,12.90
2015,06,23,04,43,12.90
2015,06,23,04,44,12.90
2015,06,23,04,45,12.90
2015,06,23,04,46,12.90
2015,06,23,04,47,12.80
2015,06,23,04,48,12.80
2015,06,23,04,49,12.80
2015,06,23,04,50,12.80
2015,06,23,04,51,12.80
2015,06,23,04,52,12.70
2015,06,23,04,53,12.70
2015,06,23,04,54,12.70
2015,06,23,04,55,12.70
2015,06,23,04,56,12.60
2015,06,23,04,57,12.60
2015,06,23,04,58,12.60
2015,06,23,04,59,12.60
2015,06,23,05,00,12.50
2015,06,23,05,01,12.50
2015,06,23,05,02,12.50
2015,06,23,05,03,12.40
2015,06,23,05,04,12.40
2015,06,23,05,05,12.40
2015,06,23,05,06,12.40
2015,06,23,05,07,12.40
2015,06,23,05,08,12.40
2015,06,23,05,09,12.40
2015,06,23,05,10,12.30
2015,06,23,05,11,12.30
2015,06,23,05,12,12.30
2015,06,23,05,13,12.30
2015,06,23,05,14,12.20
2015,06,23,05,15,12.20
2015,06,23,05,16,12.20
2015,06,23,05,17,12.20
2015,06,23,05,18,12.20
2015,06,23,05,19,12.20
2015,06,23,05,20,12.20
2015,06,23,05,21,12.20
2015,06,23,05,22,12.20
2015,06,23,05,23,12.20
2015,06,23,05,24,12.20
2015,06,23,05,25,12.20
2015,06,23,05,26,12.20
2015,06,23,05,27,12.20
2015,06,23,05,28,12.20
2015,06,23,05,29,12.20
2015,06,23,05,30,12.20
2015,06,23,05,31,12.20
2015,06,23,05,32,12.20
2015,06,23,05,33,12.20
2015,06,23,05,34,12.20
2015,06,23,05,35,12.10
2015,06,23,05,36,12.10
2015,06,23,05,37,12.10
2015,06,23,05,38,12.10
2015,06,23,05,39,12.10
2015,06,23,05,40,12.10
2015,06,23,05,41,12.10
2015,06,23,05,42,12.10
2015,06,23,05,43,12.10
2015,06,23,05,44,12.00
2015,06,23,05,45,12.00
2015,06,23,05,46,12.00
2015,06,23,05,47,12.00
2015,06,23,05,48,12.00
2015,06,23,05,49,12.00
2015,06,23,05,50,12.00
2015,06,23,05,51,12.00
2015,06,23,05,52,12.00
2015,06,23,05,53,12.00
2015,06,23,05,54,12.00
2015,06,23,05,55,12.10
2015,06,23,05,56,12.10
2015,06,23,05,57,12.10
2015,06,23,05,58,12.10
2015,06,23,05,59,12.10
2015,06,23,06,00,12.10
2015,06,23,06,01,12.10
2015,06,23,06,02,12.20
2015,06,23,06,03,12.20
2015,06,23,06,04,12.20
2015,06,23,06,05,12.20
2015,06,23,06,06,12.30
2015,06,23,06,07,12.30
2015,06,23,06,08,12.30
2015,06,23,06,09,12.30
2015,06,23,06,10,12.40
2015,06,23,06,11,12.40
2015,06,23,06,12,12.40
2015,06,23,06,13,12.40
2015,06,23,06,14,12.50
2015,06,23,06,15,12.50
2015,06,23,06,16,12.60
2015,06,23,06,17,12.60
2015,06,23,06,18,12.60
2015,06,23,06,19,12.70
2015,06,23,06,20,12.70
2015,06,23,06,21,12.80
2015,06,23,06,22,12.80
2015,06,23,06,23,12.90
2015,06,23,06,24,13.00
2015,06,23,06,25,13.10
2015,06,23,06,26,13.10
2015,06,23,06,27,13.20
2015,06,23,06,28,13.30
2015,06,23,06,29,13.40
2015,06,23,06,30,13.50
2015,06,23,06,31,13.50
2015,06,23,06,32,13.60
2015,06,23,06,33,13.70
2015,06,23,06,34,13.80
2015,06,23,06,35,13.80
2015,06,23,06,36,13.90
2015,06,23,06,37,13.90
2015,06,23,06,38,14.00
2015,06,23,06,39,14.10
2015,06,23,06,40,14.10
2015,06,23,06,41,14.20
2015,06,23,06,42,14.20
2015,06,23,06,43,14.30
2015,06,23,06,44,14.30
2015,06,23,06,45,14.30
2015,06,23,06,46,14.40
2015,06,23,06,47,14.50
2015,06,23,06,48,14.50
2015,06,23,06,49,14.60
2015,06,23,06,50,14.60
2015,06,23,06,51,14.60
2015,06,23,06,52,14.60
2015,06,23,06,53,14.70
2015,06,23,06,54,14.70
2015,06,23,06,55,14.70
2015,06,23,06,56,14.70
2015,06,23,06,57,14.80
2015,06,23,06,58,14.80
2015,06,23,06,59,14.80
2015,06,23,07,00,14.80
2015,06,23,07,01,14.80
2015,06,23,07,02,14.80
2015,06,23,07,03,14.80
2015,06,23,07,04,14.90
2015,06,23,07,05,14.90
2015,06,23,07,06,14.90
2015,06,23,07,07,14.90
2015,06,23,07,08,14.90
2015,06,23,07,09,14.90
2015,06,23,07,10,14.90
2015,06,23,07,11,14.90
2015,06,23,07,12,15.00
2015,06,23,07,13,15.00
2015,06,23,07,14,15.00
2015,06,23,07,15,15.00
2015,06,23,07,16,15.10
2015,06,23,07,17,15.10
2015,06,23,07,18,15.10
2015,06,23,07,19,15.20
2015,06,23,07,20,15.20
2015,06,23,07,21,15.20
2015,06,23,07,22,15.30
2015,06,23,07,23,15.30
2015,06,23,07,24,15.30
2015,06,23,07,25,15.40
2015,06,23,07,26,15.40
2015,06,23,07,27,15.40
2015,06,23,07,28,15.40
2015,06,23,07,29,15.50
2015,06,23,07,30,15.50
2015,06,23,07,31,15.60
2015,06,23,07,32,15.60
2015,06,23,07,33,15.70
2015,06,23,07,34,15.70
2015,06,23,07,35,15.70
2015,06,23,07,36,15.80
2015,06,23,07,37,15.80
2015,06,23,07,38,15.80
2015,06,23,07,39,15.90
2015,06,23,07,40,15.90
2015,06,23,07,41,15.90
2015,06,23,07,42,16.00
2015,06,23,07,43,16.00
2015,06,23,07,44,16.10
2015,06,23,07,45,16.10
2015,06,23,07,46,16.10
2015,06,23,07,47,16.10
2015,06,23,07,48,16.10
2015,06,23,07,49,16.10
2015,06,23,07,50,16.20
2015,06,23,07,51,16.20
2015,06,23,07,52,16.20
2015,06,23,07,53,16.20
2015,06,23,07,54,16.20
2015,06,23,07,55,16.20
2015,06,23,07,56,16.20
2015,06,23,07,57,16.20
2015,06,23,07,58,16.20
2015,06,23,07,59,16.20
2015,06,23,08,00,16.20
2015,06,23,08,01,16.20
2015,06,23,08,02,16.20
2015,06,23,08,03,16.30
2015,06,23,08,04,16.30
2015,06,23,08,05,16.30
2015,06,23,08,06,16.30
2015,06,23,08,07,16.30
2015,06,23,08,08,16.30
2015,06,23,08,09,16.30
2015,06,23,08,10,16.30
2015,06,23,08,11,16.40
2015,06,23,08,12,16.40
2015,06,23,08,13,16.40
2015,06,23,08,14,16.50
2015,06,23,08,15,16.50
2015,06,23,08,16,16.50
2015,06,23,08,17,16.60
2015,06,23,08,18,16.60
2015,06,23,08,19,16.60
2015,06,23,08,20,16.60
2015,06,23,08,21,16.60
2015,06,23,08,22,16.60
2015,06,23,08,23,16.60
2015,06,23,08,24,16.60
2015,06,23,08,25,16.60
2015,06,23,08,26,16.60
2015,06,23,08,27,16.60
2015,06,23,08,28,16.60
2015,06,23,08,29,16.60
2015,06,23,08,30,16.60
2015,06,23,08,31,16.60
2015,06,23,08,32,16.60
2015,06,23,08,33,16.60
2015,06,23,08,34,16.60
2015,06,23,08,35,16.70
2015,06,23,08,36,16.70
2015,06,23,08,37,16.70
2015,06,23,08,38,16.70
2015,06,23,08,39,16.70
2015,06,23,08,40,16.70
2015,06,23,08,41,16.70
2015,06,23,08,42,16.80
2015,06,23,08,43,16.80
2015,06,23,08,44,16.80
2015,06,23,08,45,16.80
2015,06,23,08,46,16.90
2015,06,23,08,47,16.90
2015,06,23,08,48,16.90
2015,06,23,08,49,16.90
2015,06,23,08,50,16.90
2015,06,23,08,51,16.90
2015,06,23,08,52,16.90
2015,06,23,08,53,16.90
2015,06,23,08,54,16.90
2015,06,23,08,55,16.90
2015,06,23,08,56,16.90
2015,06,23,08,57,16.90
2015,06,23,08,58,16.90
2015,06,23,08,59,17.00
2015,06,23,09,00,17.00
2015,06,23,09,01,17.00
2015,06,23,09,02,17.00
2015,06,23,09,03,17.00
2015,06,23,09,04,17.00
2015,06,23,09,05,17.00
2015,06,23,09,06,17.10
2015,06,23,09,07,17.10
2015,06,23,09,08,17.20
2015,06,23,09,09,17.20
2015,06,23,09,10,17.30
2015,06,23,09,11,17.30
2015,06,23,09,12,17.30
2015,06,23,09,13,17.30
2015,06,23,09,14,17.40
2015,06,23,09,15,17.40
2015,06,23,09,16,17.40
2015,06,23,09,17,17.40
2015,06,23,09,18,17.40
2015,06,23,09,19,17.40
2015,06,23,09,20,17.40
2015,06,23,09,21,17.40
2015,06,23,09,22,17.40
2015,06,23,09,23,17.40
2015,06,23,09,24,17.50
2015,06,23,09,25,17.50
2015,06,23,09,26,17.60
2015,06,23,09,27,17.70
2015,06,23,09,28,17.80
2015,06,23,09,29,17.90
2015,06,23,09,30,18.00
2015,06,23,09,31,18.10
2015,06,23,09,32,18.10
2015,06,23,09,33,18.10
2015,06,23,09,34,18.20
2015,06,23,09,35,18.20
2015,06,23,09,36,18.20
2015,06,23,09,37,18.20
2015,06,23,09,38,18.20
2015,06,23,09,39,18.20
2015,06,23,09,40,18.30
2015,06,23,09,41,18.30
2015,06,23,09,42,18.40
2015,06,23,09,43,18.50
2015,06,23,09,44,18.50
2015,06,23,09,45,18.50
2015,06,23,09,46,18.50
2015,06,23,09,47,18.50
2015,06,23,09,48,18.50
2015,06,23,09,49,18.60
2015,06,23,09,50,18.60
2015,06,23,09,51,18.50
2015,06,23,09,52,18.60
2015,06,23,09,53,18.60
2015,06,23,09,54,18.60
2015,06,23,09,55,18.70
2015,06,23,09,56,18.80
2015,06,23,09,57,18.80
2015,06,23,09,58,18.90
2015,06,23,09,59,18.90
2015,06,23,10,00,18.90
2015,06,23,10,01,18.90
2015,06,23,10,02,18.90
2015,06,23,10,03,18.90
2015,06,23,10,04,18.90
2015,06,23,10,05,18.80
2015,06,23,10,06,18.70
2015,06,23,10,07,18.60
2015,06,23,10,08,18.60
2015,06,23,10,09,18.60
2015,06,23,10,10,18.70
2015,06,23,10,11,18.60
2015,06,23,10,12,18.60
2015,06,23,10,13,18.60
2015,06,23,10,14,18.60
2015,06,23,10,15,18.60
2015,06,23,10,16,18.60
2015,06,23,10,17,18.60
2015,06,23,10,18,18.60
2015,06,23,10,19,18.60
2015,06,23,10,20,18.60
2015,06,23,10,21,18.60
2015,06,23,10,22,18.60
2015,06,23,10,23,18.50
2015,06,23,10,24,18.50
2015,06,23,10,25,18.50
2015,06,23,10,26,18.50
2015,06,23,10,27,18.50
2015,06,23,10,28,18.50
2015,06,23,10,29,18.50
2015,06,23,10,30,18.60
2015,06,23,10,31,18.60
2015,06,23,10,32,18.50
2015,06,23,10,33,18.50
2015,06,23,10,34,18.40
2015,06,23,10,35,18.50
2015,06,23,10,36,18.50
2015,06,23,10,37,18.50
2015,06,23,10,38,18.60
2015,06,23,10,39,18.60
2015,06,23,10,40,18.70
2015,06,23,10,41,18.70
2015,06,23,10,42,18.80
2015,06,23,10,43,18.90
2015,06,23,10,44,18.90
2015,06,23,10,45,19.00
2015,06,23,10,46,19.10
2015,06,23,10,47,19.00
2015,06,23,10,48,19.00
2015,06,23,10,49,18.90
2015,06,23,10,50,18.90
2015,06,23,10,51,18.80
2015,06,23,10,52,18.80
2015,06,23,10,53,18.80
2015,06,23,10,54,18.80
2015,06,23,10,55,18.80
2015,06,23,10,56,18.70
2015,06,23,10,57,18.70
2015,06,23,10,58,18.80
2015,06,23,10,59,18.80
2015,06,23,11,00,18.90
2015,06,23,11,01,19.00
2015,06,23,11,02,19.00
2015,06,23,11,03,19.00
2015,06,23,11,04,19.00
2015,06,23,11,05,18.90
2015,06,23,11,06,18.90
2015,06,23,11,07,18.80
2015,06,23,11,08,18.70
2015,06,23,11,09,18.70
2015,06,23,11,10,18.70
2015,06,23,11,11,18.70
2015,06,23,11,12,18.70
2015,06,23,11,13,18.70
2015,06,23,11,14,18.80
2015,06,23,11,15,18.80
2015,06,23,11,16,18.80
2015,06,23,11,17,18.80
2015,06,23,11,18,18.80
2015,06,23,11,19,18.80
2015,06,23,11,20,18.80
2015,06,23,11,21,18.80
2015,06,23,11,22,18.80
2015,06,23,11,23,18.80
2015,06,23,11,24,18.80
2015,06,23,11,25,18.80
2015,06,23,11,26,18.90
2015,06,23,11,27,18.90
2015,06,23,11,28,18.90
2015,06,23,11,29,19.00
2015,06,23,11,30,19.10
2015,06,23,11,31,19.30
2015,06,23,11,32,19.30
2015,06,23,11,33,19.40
2015,06,23,11,34,19.50
2015,06,23,11,35,19.50
2015,06,23,11,36,19.50
2015,06,23,11,37,19.40
2015,06,23,11,38,19.40
2015,06,23,11,39,19.40
2015,06,23,11,40,19.40
2015,06,23,11,41,19.40
2015,06,23,11,42,19.50
2015,06,23,11,43,19.60
2015,06,23,11,44,19.60
2015,06,23,11,45,19.60
2015,06,23,11,46,19.50
2015,06,23,11,47,19.40
2015,06,23,11,48,19.40
2015,06,23,11,49,19.40
2015,06,23,11,50,19.40
2015,06,23,11,51,19.40
2015,06,23,11,52,19.40
2015,06,23,11,53,19.50
2015,06,23,11,54,19.50
2015,06,23,11,55,19.50
2015,06,23,11,56,19.50
2015,06,23,11,57,19.60
2015,06,23,11,58,19.60
2015,06,23,11,59,19.70
2015,06,23,12,00,19.70
2015,06,23,12,01,19.80
2015,06,23,12,02,19.80
2015,06,23,12,03,19.90
2015,06,23,12,04,19.90
2015,06,23,12,05,19.90
2015,06,23,12,06,19.90
2015,06,23,12,07,19.90
2015,06,23,12,08,20.00
2015,06,23,12,09,20.10
2015,06,23,12,10,20.20
2015,06,23,12,11,20.20
2015,06,23,12,12,20.20
2015,06,23,12,13,20.20
2015,06,23,12,14,20.20
2015,06,23,12,15,20.10
2015,06,23,12,16,20.10
2015,06,23,12,17,20.10
2015,06,23,12,18,20.10
2015,06,23,12,19,20.10
2015,06,23,12,20,20.10
2015,06,23,12,21,20.10
2015,06,23,12,22,20.00
2015,06,23,12,23,20.00
2015,06,23,12,24,20.00
2015,06,23,12,25,20.10
2015,06,23,12,26,20.20
2015,06,23,12,27,20.30
2015,06,23,12,28,20.30
2015,06,23,12,29,20.40
2015,06,23,12,30,20.40
2015,06,23,12,31,20.40
2015,06,23,12,32,20.40
2015,06,23,12,33,20.30
2015,06,23,12,34,20.40
2015,06,23,12,35,20.40
2015,06,23,12,36,20.50
2015,06,23,12,37,20.60
2015,06,23,12,38,20.70
2015,06,23,12,39,20.80
2015,06,23,12,40,20.90
2015,06,23,12,41,20.90
2015,06,23,12,42,20.80
2015,06,23,12,43,20.80
2015,06,23,12,44,20.70
2015,06,23,12,45,20.70
2015,06,23,12,46,20.70
2015,06,23,12,47,20.60
2015,06,23,12,48,20.60
2015,06,23,12,49,20.50
2015,06,23,12,50,20.40
2015,06,23,12,51,20.40
2015,06,23,12,52,20.30
2015,06,23,12,53,20.30
2015,06,23,12,54,20.30
2015,06,23,12,55,20.30
2015,06,23,12,56,20.30
2015,06,23,12,57,20.30
2015,06,23,12,58,20.20
2015,06,23,12,59,20.10
2015,06,23,13,00,20.00
2015,06,23,13,01,20.00
2015,06,23,13,02,20.10
2015,06,23,13,03,20.10
2015,06,23,13,04,20.10
2015,06,23,13,05,20.10
2015,06,23,13,06,20.00
2015,06,23,13,07,20.00
2015,06,23,13,08,19.90
2015,06,23,13,09,19.90
2015,06,23,13,10,19.80
2015,06,23,13,11,19.90
2015,06,23,13,12,19.90
2015,06,23,13,13,19.90
2015,06,23,13,14,20.00
2015,06,23,13,15,20.10
2015,06,23,13,16,20.20
2015,06,23,13,17,20.20
2015,06,23,13,18,20.30
2015,06,23,13,19,20.40
2015,06,23,13,20,20.40
2015,06,23,13,21,20.40
2015,06,23,13,22,20.50
2015,06,23,13,23,20.50
2015,06,23,13,24,20.40
2015,06,23,13,25,20.40
2015,06,23,13,26,20.50
2015,06,23,13,27,20.50
2015,06,23,13,28,20.60
2015,06,23,13,29,20.70
2015,06,23,13,30,20.80
2015,06,23,13,31,20.80
2015,06,23,13,32,20.80
2015,06,23,13,33,20.80
2015,06,23,13,34,20.90
2015,06,23,13,35,20.90
2015,06,23,13,36,20.90
2015,06,23,13,37,20.80
2015,06,23,13,38,20.80
2015,06,23,13,39,20.70
2015,06,23,13,40,20.70
2015,06,23,13,41,20.70
2015,06,23,13,42,20.70
2015,06,23,13,43,20.60
2015,06,23,13,44,20.70
2015,06,23,13,45,20.60
2015,06,23,13,46,20.60
2015,06,23,13,47,20.60
2015,06,23,13,48,20.50
2015,06,23,13,49,20.60
2015,06,23,13,50,20.60
2015,06,23,13,51,20.60
2015,06,23,13,52,20.60
2015,06,23,13,53,20.60
2015,06,23,13,54,20.60
2015,06,23,13,55,20.70
2015,06,23,13,56,20.80
2015,06,23,13,57,20.80
2015,06,23,13,58,20.90
2015,06,23,13,59,20.90
2015,06,23,14,00,20.90
2015,06,23,14,01,20.90
2015,06,23,14,02,20.90
2015,06,23,14,03,20.90
2015,06,23,14,04,21.00
2015,06,23,14,05,21.10
2015,06,23,14,06,21.10
2015,06,23,14,07,21.20
2015,06,23,14,08,21.20
2015,06,23,14,09,21.20
2015,06,23,14,10,21.20
2015,06,23,14,11,21.20
2015,06,23,14,12,21.20
2015,06,23,14,13,21.20
2015,06,23,14,14,21.20
2015,06,23,14,15,21.20
2015,06,23,14,16,21.30
2015,06,23,14,17,21.40
2015,06,23,14,18,21.40
2015,06,23,14,19,21.40
2015,06,23,14,20,21.40
2015,06,23,14,21,21.30
2015,06,23,14,22,21.20
2015,06,23,14,23,21.10
2015,06,23,14,24,21.10
2015,06,23,14,25,21.00
2015,06,23,14,26,21.00
2015,06,23,14,27,21.00
2015,06,23,14,28,21.00
2015,06,23,14,29,21.00
2015,06,23,14,30,21.10
2015,06,23,14,31,21.10
2015,06,23,14,32,21.20
2015,06,23,14,33,21.20
2015,06,23,14,34,21.30
2015,06,23,14,35,21.40
2015,06,23,14,36,21.50
2015,06,23,14,37,21.50
2015,06,23,14,38,21.60
2015,06,23,14,39,21.60
2015,06,23,14,40,21.60
2015,06,23,14,41,21.60
2015,06,23,14,42,21.70
2015,06,23,14,43,21.70
2015,06,23,14,44,21.70
2015,06,23,14,45,21.80
2015,06,23,14,46,21.90
2015,06,23,14,47,21.90
2015,06,23,14,48,21.90
2015,06,23,14,49,21.90
2015,06,23,14,50,21.80
2015,06,23,14,51,21.80
2015,06,23,14,52,21.70
2015,06,23,14,53,21.60
2015,06,23,14,54,21.50
2015,06,23,14,55,21.30
2015,06,23,14,56,21.30
2015,06,23,14,57,21.30
2015,06,23,14,58,21.20
2015,06,23,14,59,21.20
2015,06,23,15,00,21.30
2015,06,23,15,01,21.30
2015,06,23,15,02,21.30
2015,06,23,15,03,21.30
2015,06,23,15,04,21.30
2015,06,23,15,05,21.30
2015,06,23,15,06,21.30
2015,06,23,15,07,21.30
2015,06,23,15,08,21.30
2015,06,23,15,09,21.30
2015,06,23,15,10,21.30
2015,06,23,15,11,21.40
2015,06,23,15,12,21.40
2015,06,23,15,13,21.40
2015,06,23,15,14,21.40
2015,06,23,15,15,21.40
2015,06,23,15,16,21.40
2015,06,23,15,17,21.40
2015,06,23,15,18,21.40
2015,06,23,15,19,21.40
2015,06,23,15,20,21.40
2015,06,23,15,21,21.40
2015,06,23,15,22,21.40
2015,06,23,15,23,21.40
2015,06,23,15,24,21.40
2015,06,23,15,25,21.40
2015,06,23,15,26,21.40
2015,06,23,15,27,21.40
2015,06,23,15,28,21.40
2015,06,23,15,29,21.50
2015,06,23,15,30,21.60
2015,06,23,15,31,21.60
2015,06,23,15,32,21.70
2015,06,23,15,33,21.70
2015,06,23,15,34,21.80
2015,06,23,15,35,21.80
2015,06,23,15,36,21.80
2015,06,23,15,37,21.70
2015,06,23,15,38,21.70
2015,06,23,15,39,21.70
2015,06,23,15,40,21.70
2015,06,23,15,41,21.70
2015,06,23,15,42,21.70
2015,06,23,15,43,21.70
2015,06,23,15,44,21.70
2015,06,23,15,45,21.80
2015,06,23,15,46,21.90
2015,06,23,15,47,21.90
2015,06,23,15,48,21.90
2015,06,23,15,49,21.90
2015,06,23,15,50,21.90
2015,06,23,15,51,21.90
2015,06,23,15,52,21.90
2015,06,23,15,53,21.90
2015,06,23,15,54,21.90
2015,06,23,15,55,21.90
2015,06,23,15,56,21.90
2015,06,23,15,57,21.90
2015,06,23,15,58,21.90
2015,06,23,15,59,22.00
2015,06,23,16,00,22.00
2015,06,23,16,01,22.10
2015,06,23,16,02,22.10
2015,06,23,16,03,22.10
2015,06,23,16,04,22.10
2015,06,23,16,05,22.10
2015,06,23,16,06,22.10
2015,06,23,16,07,22.10
2015,06,23,16,08,22.10
2015,06,23,16,09,22.10
2015,06,23,16,10,22.20
2015,06,23,16,11,22.20
2015,06,23,16,12,22.30
2015,06,23,16,13,22.40
2015,06,23,16,14,22.40
2015,06,23,16,15,22.40
2015,06,23,16,16,22.40
2015,06,23,16,17,22.40
2015,06,23,16,18,22.50
2015,06,23,16,19,22.50
2015,06,23,16,20,22.60
2015,06,23,16,21,22.60
2015,06,23,16,22,22.60
2015,06,23,16,23,22.70
2015,06,23,16,24,22.70
2015,06,23,16,25,22.70
2015,06,23,16,26,22.70
2015,06,23,16,27,22.70
2015,06,23,16,28,22.60
2015,06,23,16,29,22.50
2015,06,23,16,30,22.50
2015,06,23,16,31,22.40
2015,06,23,16,32,22.50
2015,06,23,16,33,22.40
2015,06,23,16,34,22.40
2015,06,23,16,35,22.40
2015,06,23,16,36,22.40
2015,06,23,16,37,22.40
2015,06,23,16,38,22.40
2015,06,23,16,39,22.40
2015,06,23,16,40,22.40
2015,06,23,16,41,22.50
2015,06,23,16,42,22.50
2015,06,23,16,43,22.60
2015,06,23,16,44,22.60
2015,06,23,16,45,22.60
2015,06,23,16,46,22.60
2015,06,23,16,47,22.60
2015,06,23,16,48,22.70
2015,06,23,16,49,22.70
2015,06,23,16,50,22.70
2015,06,23,16,51,22.70
2015,06,23,16,52,22.80
2015,06,23,16,53,22.70
2015,06,23,16,54,22.70
2015,06,23,16,55,22.70
2015,06,23,16,56,22.70
2015,06,23,16,57,22.70
2015,06,23,16,58,22.70
2015,06,23,16,59,22.60
2015,06,23,17,00,22.60
2015,06,23,17,01,22.50
2015,06,23,17,02,22.40
2015,06,23,17,03,22.40
2015,06,23,17,04,22.50
2015,06,23,17,05,22.50
2015,06,23,17,06,22.60
2015,06,23,17,07,22.60
2015,06,23,17,08,22.50
2015,06,23,17,09,22.50
2015,06,23,17,10,22.50
2015,06,23,17,11,22.50
2015,06,23,17,12,22.50
2015,06,23,17,13,22.50
2015,06,23,17,14,22.60
2015,06,23,17,15,22.60
2015,06,23,17,16,22.60
2015,06,23,17,17,22.70
2015,06,23,17,18,22.70
2015,06,23,17,19,22.70